Regional Weather Roundup
Issued by NWS Albany, NY

Home | Current Version | Previous Version | Graphics & Text | Print | Product List | Glossary Off
Versions: 1 2 3 4 5 6 7 8 9 10 11 12 13 14 15 16 17 18 19 20 21 22 23 24 25 26 27 28

000
ASUS41 KALY 270110
RWRALY

NEW YORK STATE HOURLY WEATHER ROUNDUP
NATIONAL WEATHER SERVICE ALBANY NY
900 PM EDT THU APR 26 2018

NOTE: "FAIR" INDICATES FEW OR NO CLOUDS BELOW 12,000 FEET WITH NO
SIGNIFICANT WEATHER AND/OR NO OBSTRUCTIONS TO VISIBILITY.

NYZ032-033-038>043-046>054-057>066-NYZ062>081-082-084-270200-
EAST


CITY           SKY/WX    TMP DP  RH WIND       PRES   REMARKS
ALBANY         FAIR      47  38  71 NW6       29.89R
GLENS FALLS    FAIR      47  40  76 SW6       29.84R
POUGHKEEPSIE   FAIR      56  39  53 N3        29.86R
NEWBURGH       PTCLDY    54  43  66 VRB5      29.87R
MONTGOMERY     FAIR      52  41  66 CALM      29.85R
WHITE PLAINS   FAIR      57  38  48 N5        29.85R
ISLIP          FAIR      55  45  68 SW5       29.85R
NEW YORK CITY  FAIR      65  39  38 NW8       29.84R
CENTRAL PARK   FAIR      65  39  38 W3        29.87R
$$

NYZ005>009-017-018-044>046-055-056-270200-
CENTRAL


CITY           SKY/WX    TMP DP  RH WIND       PRES   REMARKS
FULTON         FAIR      45  33  63 W6        29.87R
SYRACUSE       FAIR      46  36  68 SW5       29.88R
ROME           FAIR      41  39  93 NE3       29.89R
ELMIRA         FAIR      50  37  61 NE3       29.86R
BINGHAMTON     FAIR      48  36  63 N8        29.86R
MONTICELLO     FAIR      50  39  66 NW3       29.89R
$$

NYZ026>034-041>043-087-270200-
NORTH


CITY           SKY/WX    TMP DP  RH WIND       PRES   REMARKS
WATERTOWN      FAIR      43  36  76 SW7       29.85R
FORT DRUM      NOT AVBL
OGDENSBURG     CLOUDY    50  47  90 S6        29.81R
MASSENA        CLOUDY    47  47 100 SW10      29.81R
SARANAC LAKE   CLOUDY    40  40 100 SW7       29.79R FOG
PLATTSBURGH    MOCLDY    50  42  74 VRB3      29.78R
$$

NYZ001>004-010>016-019>021-085-270200-
WEST


CITY           SKY/WX    TMP DP  RH WIND       PRES   REMARKS
NIAGARA FALLS  FAIR      46  35  65 S12       29.87R
BUFFALO        FAIR      43  34  70 SW12      29.88R
DUNKIRK        FAIR      41  34  76 S5        29.90R
JAMESTOWN      FAIR      45  31  58 N3        29.90R
WELLSVILLE     FAIR      49  32  52 N5        29.89R
ROCHESTER      FAIR      49  36  61 SW6       29.88R
PENN YAN       FAIR      50  34  54 CALM      29.88R
$$

             KEY
       WCI = WIND CHILL INDEX
       VSB = VISIBILITY
       HX  = HEAT INDEX
$$




USA.gov is the U.S. government's official web portal to all federal, state and local government web resources and services.